Temperature
11 11 10 10 10 10 10 10 10 9 9 9 9 9 9 9 9 9 9 9 9 9 9 9 9 9 9 9 10 10 10 10 10 10 10 10 9 10 10 10 10 10 10
11 10 10 10 10 10 9 9 9 9 9 9 9 8 8 9 9 9 9 9 9 9 9 9 9 9 9 9 9 9 9 9 9 9 9 9 9 9 9 9 10 10 10
10 10 10 10 9 9 9 9 9 9 9 8 8 8 8 8 8 8 8 8 8 8 8 8 8 8 8 8 9 8 9 9 9 9 9 9 9 9 9 9 9 9 9
10 10 9 9 9 9 9 9 9 8 8 8 8 8 8 8 8 8 8 8 8 8 8 8 8 8 8 8 8 8 8 8 8 9 9 9 9 9 9 9 9 9 9
10 10 9 9 9 9 9 8 8 8 8 8 8 8 8 8 8 8 8 8 8 8 8 8 8 8 8 8 8 8 8 8 8 9 9 8 8 8 9 9 9 9 9
9 9 9 9 9 9 8 8 8 8 8 8 8 8 8 8 8 8 8 8 8 7 8 7 7 7 8 8 8 8 8 8 8 8 8 8 8 9 8 9 9 9 9
9 9 9 9 9 8 8 8 8 8 8 8 8 8 8 8 8 8 8 8 7 7 7 7 7 7 7 7 7 8 8 8 8 8 8 8 8 8 8 9 9 9 9
9 9 9 9 8 8 8 8 8 8 8 8 8 8 8 8 8 8 8 7 7 7 7 7 7 7 7 7 7 7 7 8 8 8 8 8 8 8 8 8 9 9 9
9 9 9 8 8 8 8 8 8 8 8 8 8 8 8 8 8 8 8 7 7 7 7 7 7 7 7 7 7 7 7 7 8 8 8 8 8 8 8 8 8 9 9
9 8 8 8 8 8 8 8 8 8 8 8 8 8 8 8 8 8 8 8 8 8 7 7 7 7 7 7 7 7 7 7 7 8 8 8 8 8 8 8 8 9 9
8 8 8 8 8 8 8 8 8 8 8 8 8 8 8 8 8 8 8 8 8 8 8 7 7 7 7 7 7 7 7 7 7 8 8 8 8 8 8 8 8 8 9
8 8 8 8 8 8 8 8 8 8 8 8 8 8 8 8 8 8 8 8 8 7 7 7 7 7 7 7 7 7 8 8 8 8 8 8 8 8 8 8 8 8 8
8 8 8 8 8 8 8 8 8 8 9 9 9 9 9 8 8 8 8 8 8 7 7 7 7 7 7 7 7 7 8 8 8 8 8 8 8 8 8 8 8 8 8
8 8 8 8 8 8 8 8 9 9 9 9 9 9 9 9 8 8 8 8 8 8 8 8 8 8 8 8 8 8 8 8 8 8 8 8 8 8 8 8 9 9 9
8 8 8 8 8 8 8 8 8 8 8 8 8 9 9 9 8 8 8 8 8 8 8 8 8 8 8 8 8 8 8 8 8 8 8 9 9 9 9 9 9 9 9
8 8 9 9 9 9 9 9 9 8 8 8 8 8 8 8 8 8 8 8 8 8 8 8 9 9 9 9 9 9 9 9 9 9 9 9 9 9 9 9 9 9 10
8 8 9 9 9 9 9 9 9 9 9 8 8 9 9 8 8 8 8 8 8 8 8 9 9 9 9 9 9 9 9 9 9 9 9 9 9 9 9 10 10 10 10
8 9 9 9 9 9 9 9 9 9 9 9 9 9 9 9 9 9 9 9 9 9 9 9 9 9 9 9 9 9 9 9 9 9 9 9 9 10 10 10 10 10 10
9 9 9 9 9 9 9 9 10 10 10 9 9 9 9 9 9 9 9 9 9 10 10 10 10 10 9 9 9 9 9 9 9 9 10 9 10 10 10 10 10 10 10
9 9 9 9 9 9 9 10 10 10 10 10 10 10 10 9 9 10 9 9 10 10 10 10 10 10 10 10 10 10 10 10 10 10 10 10 10 10 10 10 10 11 11
10 10 9 9 10 10 10 10 10 10 10 10 10 10 10 10 10 10 10 10 10 10 10 10 10 10 10 10 10 10 10 10 10 10 10 10 10 10 10 10 10 11 11
10 10 10 10 10 10 10 10 10 10 10 10 10 10 10 10 10 10 10 10 10 10 10 10 10 10 10 10 10 10 10 10 10 10 10 10 10 10 10 10 11 11 11
10 10 10 10 10 10 10 10 10 10 10 10 11 11 11 10 10 10 10 10 10 10 10 10 10 10 11 10 10 10 10 10 10 10 10 10 10 10 10 10 10 11 11
10 10 10 10 10 10 10 11 11 11 11 11 11 11 11 11 10 10 10 10 10 10 10 10 10 10 10 10 10 10 11 10 10 10 10 10 10 10 10 10 10 11 11
11 11 11 11 11 11 11 11 11 11 11 11 11 11 11 11 11 10 10 10 10 10 10 10 10 10 10 10 10 10 10 10 10 10 10 10 10 10 10 10 10 10 11
11 11 11 11 11 11 11 11 11 11 11 11 11 11 11 11 11 11 11 10 10 10 10 10 10 10 10 10 10 10 10 10 10 10 10 10 10 10 10 10 10 10 10
Wind_Speed
3 2 2 2 2 1 1 2 2 2 2 2 3 3 3 3 4 4 4 4 3 4 4 3 4 5 4 4 4 4 4 5 5 4 2 1 1 2 1 1 1 2 4
3 3 2 2 2 2 2 2 1 1 1 2 2 3 3 3 3 3 4 4 4 4 4 4 4 4 4 4 4 4 4 3 4 4 3 2 2 2 2 1 1 1 2
3 3 3 2 2 2 2 1 1 1 2 2 2 3 3 4 4 3 4 4 4 4 4 5 5 5 5 4 4 3 3 3 3 3 3 2 2 2 2 2 2 1 2
2 2 2 1 1 2 2 1 2 1 1 1 2 2 3 4 4 4 4 4 4 4 4 4 5 5 5 5 3 3 3 3 3 3 3 3 2 2 3 3 3 3 3
3 2 2 2 2 1 1 1 1 2 2 2 2 2 3 3 4 5 5 4 5 4 4 4 4 4 5 5 4 3 3 3 3 3 3 3 3 3 3 3 3 3 3
2 2 2 2 1 1 1 1 1 1 2 2 3 3 3 4 6 7 7 5 5 5 5 4 3 2 1 2 3 4 5 4 4 3 4 4 4 4 4 3 3 3 3
3 2 2 2 1 1 0 1 1 1 2 2 2 3 3 4 4 5 7 5 4 4 5 5 4 4 3 3 2 5 4 4 5 5 4 4 4 4 4 4 4 3 2
2 2 2 2 1 1 1 1 1 1 2 2 2 3 2 3 2 4 8 4 3 3 4 5 5 5 5 5 4 2 1 2 3 4 4 4 4 3 4 4 3 3 3
2 2 2 2 2 1 1 2 1 1 1 2 2 3 3 2 2 5 9 4 3 3 4 5 5 4 6 8 4 2 1 1 1 2 1 2 2 2 3 3 4 4 3
2 2 2 2 2 2 2 2 1 1 1 2 2 3 3 3 2 4 8 4 3 3 2 2 3 5 7 8 4 3 2 1 1 2 3 4 5 5 6 6 4 3 3
2 2 2 2 1 1 1 1 1 2 2 2 2 2 2 2 1 2 6 5 5 4 3 3 4 4 5 6 6 3 3 4 2 2 3 3 4 4 5 5 4 4 3
2 2 2 1 1 1 0 1 1 2 2 2 2 2 1 1 2 0 3 5 8 5 4 4 4 4 5 6 4 3 4 5 2 2 2 2 2 2 3 3 3 4 4
3 3 2 1 1 0 1 1 2 2 2 2 2 2 2 2 0 3 4 5 6 5 4 5 5 6 6 4 3 5 5 3 1 1 1 1 2 1 2 3 4 5 6
2 2 2 2 1 1 1 2 2 3 3 3 3 3 3 2 2 2 2 2 4 5 4 3 7 8 6 4 3 3 2 2 2 1 1 1 1 2 3 3 3 4 5
2 2 2 1 1 1 1 2 3 3 4 4 4 4 4 4 4 6 6 5 6 6 7 5 4 3 2 2 1 1 2 2 2 2 2 2 2 2 2 3 3 4 4
2 2 1 1 1 2 1 1 1 3 2 4 6 7 4 4 4 5 6 7 8 8 7 5 4 3 3 3 2 2 2 2 2 2 3 3 3 3 3 4 4 5 5
2 2 2 1 2 2 3 3 2 3 6 8 8 8 8 8 8 8 8 8 9 7 6 5 4 4 3 3 3 3 3 2 3 3 3 3 3 3 4 4 5 5 5
3 2 3 3 3 3 3 3 3 3 3 3 6 10 10 9 9 9 8 7 6 6 5 5 5 4 4 4 4 4 4 3 3 4 4 4 4 4 5 5 4 4 4
3 2 2 3 3 4 4 4 4 4 4 4 4 4 10 10 11 10 8 6 7 5 5 5 5 5 5 5 4 4 4 4 4 4 4 4 5 5 5 5 5 5 6
3 3 4 5 4 4 4 5 5 5 5 4 5 5 3 5 5 5 6 6 7 6 6 6 5 6 5 6 5 5 5 5 5 5 5 5 5 6 6 6 6 6 6
4 4 6 6 5 4 5 5 6 6 6 6 6 4 4 7 6 6 6 6 7 6 6 6 6 7 6 6 6 6 6 6 5 6 5 5 6 6 6 7 7 8 8
5 5 5 5 4 5 5 6 6 6 7 8 7 5 6 8 7 7 7 7 7 7 7 7 8 7 7 6 6 6 7 6 6 6 7 7 7 7 8 8 8 8 8
6 6 6 5 5 5 7 7 7 7 7 8 7 6 6 7 7 7 7 7 7 7 7 7 8 9 8 7 7 8 8 7 7 7 7 8 8 8 8 8 9 10 10
6 6 6 6 6 7 7 7 7 8 8 8 7 7 7 7 8 8 8 8 8 8 9 8 9 10 11 10 9 10 8 7 9 9 9 9 10 9 9 9 10 10 10
7 7 7 7 7 7 7 8 8 9 9 9 8 8 9 8 8 8 8 8 9 9 10 10 10 10 11 12 12 11 6 6 8 10 10 10 11 12 12 12 11 11 11
7 7 7 7 8 8 8 9 9 10 9 9 9 9 9 9 9 9 8 9 9 9 9 10 11 12 12 12 12 9 6 7 9 10 11 11 12 11 12 11 13 12 13
Wind_Direction
144 135 122 114 107 100 85 83 70 48 24 4 3 9 6 357 354 342 339 337 335 335 328 321 314 315 304 293 280 269 258 247 248 262 282 247 229 242 236 228 189 194 135
140 131 117 106 97 85 73 64 70 58 23 11 1 8 6 4 358 346 340 341 339 339 335 328 320 315 307 298 291 280 270 260 249 249 257 247 235 229 209 200 177 142 124
133 126 112 108 99 82 59 32 40 58 40 24 12 10 4 360 355 348 344 342 344 341 334 328 325 322 312 307 293 281 269 257 251 246 249 247 234 219 197 187 162 157 140
130 117 108 100 102 88 63 37 29 28 25 20 13 8 1 2 358 350 349 348 344 342 336 330 329 325 321 315 297 284 274 256 241 237 238 231 214 204 205 189 178 180 166
141 127 105 82 82 81 68 48 32 17 10 11 4 3 5 6 8 354 345 344 342 336 332 335 340 343 347 328 315 306 284 264 245 233 228 220 204 198 204 199 188 172 162
142 134 106 90 82 55 47 34 15 18 10 2 358 353 360 17 27 353 332 336 335 338 342 342 334 321 321 269 287 296 297 275 265 250 233 222 215 211 205 208 201 191 178
145 134 116 111 109 92 67 23 7 14 16 3 2 355 6 28 23 348 331 326 338 346 342 337 341 354 332 326 253 228 245 249 257 266 252 243 228 216 210 212 208 211 199
141 127 114 119 101 90 92 47 15 10 6 351 352 348 356 32 38 332 315 304 333 342 341 343 344 345 348 333 316 306 291 250 250 244 249 256 254 231 215 218 208 192 182
128 106 93 87 84 81 59 35 17 358 346 321 332 329 337 17 28 324 312 313 336 346 344 347 344 351 360 331 313 310 303 284 207 206 246 266 297 258 242 221 200 200 196
128 114 103 86 74 64 44 2 351 338 325 316 334 326 328 345 39 327 318 315 342 345 351 358 27 3 349 334 319 312 305 297 258 191 193 205 209 202 208 229 232 227 213
133 123 113 101 97 82 41 341 319 311 327 320 321 325 336 350 45 336 327 323 333 338 352 6 30 26 341 327 312 322 317 302 255 213 197 196 196 193 199 210 230 250 256
135 131 125 127 145 116 62 309 315 314 299 302 314 317 329 345 2 351 302 313 319 325 334 354 19 1 327 315 316 332 302 281 256 211 192 197 203 198 193 210 225 249 265
148 146 146 141 135 245 264 277 293 292 299 319 327 339 349 359 73 194 236 270 290 303 326 342 317 295 287 272 260 278 276 267 248 219 197 193 208 214 215 207 214 228 241
154 158 175 185 194 190 286 306 320 330 328 331 342 346 345 337 333 339 304 261 242 266 294 265 239 251 253 268 256 240 252 286 292 280 281 240 227 219 217 218 218 218 222
163 173 190 213 234 263 292 327 322 341 342 317 325 325 321 324 12 2 327 321 329 339 324 299 291 290 280 247 258 267 263 239 225 231 252 249 230 220 221 217 225 232 231
187 206 225 239 262 277 278 283 283 275 241 247 266 286 301 300 301 301 300 298 299 308 303 294 301 304 302 302 291 259 251 269 274 256 250 250 249 239 229 225 227 236 240
211 241 265 274 284 286 287 288 286 250 230 233 237 245 255 277 281 278 277 280 276 277 273 286 300 312 312 301 294 292 286 277 279 273 267 264 261 257 247 237 231 235 239
228 231 252 269 278 287 292 290 286 286 280 264 227 221 231 244 254 259 262 271 257 239 264 281 290 294 300 303 298 293 290 276 260 255 251 256 254 253 252 249 245 247 253
250 263 272 286 284 288 288 287 287 289 289 290 284 224 212 224 230 239 238 256 276 280 277 283 286 288 287 285 286 289 291 286 277 271 260 260 262 259 261 261 255 229 247
236 247 261 272 274 278 279 283 284 285 289 291 289 290 263 256 264 243 226 250 267 275 279 284 289 290 286 284 278 273 274 275 274 267 261 259 260 262 261 262 263 260 254
242 225 219 251 271 285 290 288 287 288 293 294 289 297 305 288 285 285 280 268 269 273 274 278 277 274 271 270 274 272 271 272 273 277 276 267 265 263 264 265 261 260 261
253 257 260 270 273 276 285 285 284 284 286 288 289 271 224 261 281 285 284 280 276 270 267 271 276 276 276 277 281 276 274 272 272 270 270 269 264 263 264 264 266 267 265
250 256 262 267 272 272 269 273 279 282 285 286 288 288 278 279 284 284 284 284 281 276 272 267 269 273 275 276 276 277 279 280 278 276 273 273 270 266 264 265 266 268 265
252 257 262 266 270 275 277 277 279 282 285 286 286 287 287 286 282 282 283 281 279 278 274 269 267 271 274 273 272 269 270 280 286 283 276 272 272 273 271 267 266 266 267
249 254 261 267 269 273 278 281 283 285 285 285 284 285 286 286 285 282 279 276 276 275 277 277 274 272 272 272 273 276 283 278 271 280 282 273 269 269 271 271 268 269 267
253 259 265 270 271 273 275 277 281 284 286 286 284 284 284 282 281 282 282 280 280 277 276 276 276 277 277 275 275 277 272 266 261 259 266 271 270 268 268 266 267 265 266
Height
1535 1535 1536 1536 1536 1536 1536 1535 1534 1534 1534 1533 1532 1531 1529 1528 1526 1525 1524 1522 1521 1519 1518 1516 1515 1513 1513 1512 1511 1511 1511 1512 1512 1512 1513 1512 1512 1512 1513 1513 1514 1514 1513
1534 1535 1535 1535 1535 1535 1535 1534 1534 1533 1533 1532 1532 1531 1529 1528 1526 1524 1523 1522 1520 1518 1516 1514 1513 1511 1510 1509 1509 1508 1508 1508 1509 1509 1510 1510 1510 1510 1510 1511 1512 1512 1512
1534 1534 1534 1534 1534 1534 1534 1533 1533 1533 1532 1532 1531 1530 1529 1527 1525 1524 1522 1521 1519 1516 1514 1513 1511 1509 1508 1507 1506 1506 1506 1506 1506 1507 1507 1507 1507 1508 1508 1509 1510 1510 1511
1533 1533 1533 1533 1533 1533 1533 1533 1533 1532 1532 1531 1531 1530 1528 1527 1525 1523 1522 1520 1518 1515 1513 1511 1509 1507 1506 1505 1504 1503 1504 1504 1504 1504 1505 1505 1505 1506 1507 1508 1508 1509 1510
1532 1532 1532 1532 1532 1532 1532 1532 1532 1531 1531 1531 1530 1529 1528 1526 1525 1523 1521 1519 1517 1514 1512 1510 1508 1506 1504 1503 1502 1502 1502 1502 1502 1502 1503 1503 1504 1504 1506 1506 1507 1508 1509
1532 1532 1532 1532 1532 1532 1531 1532 1531 1531 1530 1530 1529 1528 1527 1526 1524 1522 1520 1518 1516 1514 1511 1509 1507 1505 1503 1501 1500 1499 1499 1500 1500 1500 1501 1501 1502 1503 1504 1505 1506 1507 1508
1532 1532 1531 1531 1531 1531 1531 1531 1531 1530 1529 1529 1528 1527 1526 1525 1523 1521 1519 1517 1515 1513 1511 1509 1507 1505 1503 1501 1499 1498 1497 1497 1497 1498 1498 1499 1500 1501 1502 1503 1504 1505 1506
1531 1531 1531 1531 1531 1531 1531 1531 1530 1530 1529 1528 1527 1527 1525 1524 1523 1521 1519 1517 1515 1513 1510 1508 1506 1503 1502 1500 1498 1497 1496 1496 1495 1495 1496 1497 1498 1499 1500 1501 1502 1503 1504
1531 1531 1531 1531 1531 1531 1531 1531 1530 1529 1528 1528 1527 1526 1525 1523 1522 1520 1518 1517 1515 1513 1510 1508 1505 1503 1501 1498 1497 1496 1495 1495 1494 1494 1494 1495 1495 1497 1498 1500 1501 1502 1503
1531 1531 1531 1531 1531 1531 1531 1530 1530 1529 1528 1528 1527 1526 1524 1523 1521 1520 1518 1517 1515 1513 1510 1508 1505 1503 1500 1498 1496 1495 1494 1494 1493 1493 1493 1494 1494 1495 1496 1497 1499 1500 1501
1531 1531 1531 1531 1531 1531 1531 1530 1530 1529 1528 1527 1526 1525 1524 1522 1521 1519 1518 1516 1515 1513 1511 1508 1506 1503 1500 1498 1496 1495 1493 1493 1493 1493 1493 1493 1493 1494 1494 1496 1497 1498 1500
1531 1531 1531 1531 1532 1532 1531 1530 1530 1529 1528 1527 1526 1525 1523 1522 1520 1519 1517 1516 1514 1512 1511 1509 1506 1503 1501 1498 1496 1495 1493 1493 1493 1493 1493 1493 1493 1493 1494 1495 1495 1497 1497
1530 1531 1531 1531 1531 1531 1531 1530 1530 1529 1528 1527 1525 1524 1523 1522 1520 1518 1517 1516 1514 1512 1510 1508 1506 1503 1501 1499 1497 1495 1494 1493 1493 1493 1493 1492 1493 1493 1493 1494 1495 1495 1496
1530 1531 1531 1531 1531 1531 1531 1530 1530 1529 1528 1527 1525 1524 1523 1521 1520 1519 1517 1515 1514 1512 1510 1508 1505 1503 1501 1499 1497 1496 1495 1494 1493 1493 1493 1493 1492 1493 1493 1494 1494 1495 1496
1530 1531 1531 1531 1531 1531 1530 1529 1529 1528 1527 1526 1525 1524 1522 1521 1519 1517 1516 1515 1513 1511 1509 1507 1506 1504 1502 1500 1499 1497 1496 1495 1494 1493 1493 1493 1493 1493 1493 1493 1494 1494 1495
1531 1531 1531 1531 1530 1530 1529 1529 1527 1527 1525 1524 1523 1522 1521 1519 1517 1516 1515 1514 1512 1510 1508 1507 1505 1503 1502 1500 1499 1497 1496 1495 1494 1493 1493 1492 1492 1492 1492 1493 1493 1493 1493
1531 1531 1531 1530 1530 1529 1528 1527 1526 1526 1524 1523 1522 1521 1519 1518 1516 1515 1514 1513 1511 1509 1508 1506 1505 1503 1501 1500 1498 1497 1496 1495 1494 1493 1492 1492 1491 1491 1491 1491 1491 1491 1491
1530 1530 1530 1530 1529 1528 1527 1526 1525 1524 1523 1522 1521 1519 1518 1516 1515 1514 1512 1511 1510 1508 1507 1505 1504 1502 1500 1499 1497 1496 1495 1493 1493 1492 1491 1491 1490 1490 1490 1489 1489 1489 1489
1530 1530 1529 1529 1528 1527 1526 1525 1524 1523 1522 1520 1519 1518 1516 1515 1513 1512 1510 1509 1508 1507 1505 1504 1502 1501 1499 1498 1496 1495 1493 1492 1491 1490 1490 1489 1489 1488 1488 1487 1487 1487 1486
1529 1528 1528 1527 1527 1526 1525 1524 1522 1521 1520 1519 1517 1516 1515 1513 1512 1510 1508 1507 1506 1505 1503 1502 1500 1499 1497 1496 1495 1493 1492 1490 1489 1488 1487 1487 1486 1486 1485 1485 1485 1484 1484
1528 1527 1526 1526 1525 1524 1523 1522 1521 1519 1518 1517 1515 1514 1513 1511 1509 1508 1507 1505 1503 1502 1501 1499 1498 1496 1495 1494 1492 1491 1490 1488 1487 1486 1485 1484 1484 1483 1483 1482 1481 1481 1480
1526 1526 1525 1524 1523 1522 1521 1520 1518 1517 1515 1514 1512 1511 1509 1508 1506 1505 1503 1502 1500 1499 1498 1496 1495 1494 1492 1491 1490 1489 1487 1486 1484 1483 1482 1481 1481 1480 1479 1478 1478 1477 1476
1524 1523 1523 1522 1521 1519 1518 1517 1515 1514 1512 1511 1509 1508 1506 1505 1503 1502 1500 1498 1497 1495 1494 1493 1491 1490 1489 1488 1486 1485 1484 1483 1482 1481 1479 1478 1477 1476 1475 1475 1474 1473 1472
1522 1521 1520 1519 1518 1517 1515 1514 1512 1511 1509 1507 1506 1504 1503 1501 1499 1497 1496 1494 1493 1492 1490 1489 1487 1486 1485 1484 1482 1481 1480 1479 1478 1477 1476 1474 1473 1472 1471 1470 1469 1468 1467
1519 1518 1517 1516 1515 1514 1512 1511 1509 1507 1505 1504 1502 1500 1498 1496 1495 1493 1491 1490 1488 1487 1485 1484 1483 1481 1480 1479 1478 1477 1475 1474 1473 1472 1470 1469 1468 1467 1466 1465 1464 1463 1462
1516 1515 1514 1513 1512 1510 1509 1507 1505 1504 1502 1500 1498 1496 1494 1492 1490 1488 1487 1485 1483 1482 1480 1479 1477 1476 1475 1473 1472 1471 1470 1468 1467 1466 1464 1463 1462 1462 1461 1459 1458 1457 1456